Weather History for KHWV - February, 2014

Change the Weather History Date:

Wednesday, February 5, 2014

  Actual Average (KISP) Record (KISP)
Temperature  
Mean Temperature 31 °F 31 °F  
Max Temperature 34 °F 39 °F 67 °F (1991)
Min Temperature 28 °F 24 °F 1 °F (1996)
Degree Days  
Heating Degree Days 34 34  
Month to date heating degree days 170  
Since 1 July heating degree days 3162  
Cooling Degree Days 0 0  
Month to date cooling degree days 0  
Year to date cooling degree days 0  
Moisture  
Dew Point 29 °F    
Average Humidity 91    
Maximum Humidity 100    
Minimum Humidity 85    
Precipitation  
Precipitation 0.29 in 0.10 in 1.09 in (1997)
Month to date precipitation 0.54  
Year to date precipitation 4.18  
Snow  
Snow 0.00 in 0.20 in 3.50 in (1985)
Month to date snowfall 1.2  
Since 1 July snowfall 13.8  
Snow Depth -    
Sea Level Pressure  
Sea Level Pressure 29.91 in    
Wind  
Wind Speed 5 mph (North)    
Max Wind Speed 14 mph    
Max Gust Speed 25 mph    
Visibility 4 miles    
Events Rain , Snow    
T = Trace of Precipitation, MM = Missing Value Source: NWS Daily Summary

Daily Weather History Graph

Daily Weather History Graph

Search for Another Location

Airport or City:

Trip Planner

Search our weather history database for the weather conditions in past years. The results will help you decide how hot, cold, wet, or windy it might be!

Date:

Astronomy

Feb. 05, 2014 Rise Set
Actual Time 6:57 AM EST 5:13 PM EST
Civil Twilight 6:28 AM EST 5:42 PM EST
Nautical Twilight 5:56 AM EST 6:15 PM EST
Astronomical Twilight 5:24 AM EST 6:47 PM EST
Moon 10:07 AM EST (2/5) No Moon Set
Length of Visible Light 11h 13m
Length of Day
10h 16m
Waxing Crescent, 39% of the Moon is Illuminated
Feb 5
Waxing Crescent
Feb 6
First Quarter
Feb 14
Full
Feb 22
Last Quarter
Mar 1
New

Hourly Weather History & Observations

Time (EST) Temp. Windchill Dew Point Humidity Pressure Visibility Wind Dir Wind Speed Gust Speed Precip Events Conditions
12:56 AM 30.0 °F - 26.1 °F 85% 30.25 in 10.0 mi Calm Calm - N/A   Overcast
1:56 AM 28.9 °F 25.2 °F 25.0 °F 85% 30.22 in 5.0 mi Variable 3.5 mph - 0.00 in Snow Light Snow
2:09 AM 28.9 °F 25.2 °F 25.0 °F 85% 30.20 in 2.5 mi Variable 3.5 mph - 0.00 in Snow Light Snow
2:25 AM 28.9 °F 23.9 °F 25.0 °F 85% 30.18 in 3.0 mi Variable 4.6 mph - 0.00 in Snow Light Snow
2:56 AM 28.9 °F 22.8 °F 25.0 °F 85% 30.19 in 3.0 mi Variable 5.8 mph - 0.00 in Snow Light Snow
3:07 AM 28.9 °F 23.9 °F 25.0 °F 85% 30.17 in 2.5 mi Variable 4.6 mph - 0.00 in Snow Light Snow
3:19 AM 28.9 °F 22.8 °F 26.1 °F 89% 30.17 in 1.5 mi Variable 5.8 mph - 0.00 in Snow Light Snow
3:37 AM 28.9 °F 23.9 °F 26.1 °F 89% 30.16 in 1.5 mi NNE 4.6 mph - 0.00 in Snow Light Snow
3:56 AM 28.9 °F 23.9 °F 27.0 °F 92% 30.17 in 1.2 mi NNE 4.6 mph - 0.00 in Snow Light Snow
4:56 AM 30.0 °F 24.1 °F 28.0 °F 92% 30.09 in 1.5 mi Variable 5.8 mph - 0.00 in Snow Light Snow
5:07 AM 30.9 °F 26.2 °F 28.9 °F 92% 30.09 in 3.0 mi Variable 4.6 mph - 0.00 in   Overcast
5:12 AM 30.9 °F 26.2 °F 28.9 °F 92% 30.09 in 4.0 mi Variable 4.6 mph - 0.00 in Rain Light Freezing Rain
5:38 AM 32.0 °F 27.5 °F 30.0 °F 92% 30.07 in 2.5 mi Variable 4.6 mph - N/A Rain Light Freezing Rain
5:56 AM 32.0 °F - 30.0 °F 92% 30.06 in 2.5 mi Calm Calm - N/A Rain Light Freezing Rain
6:12 AM 32.0 °F 27.5 °F 30.0 °F 92% 30.05 in 3.0 mi Variable 4.6 mph - N/A Rain Light Freezing Rain
6:30 AM 32.0 °F 26.4 °F 30.9 °F 96% 30.04 in 3.0 mi Variable 5.8 mph - N/A Rain Light Freezing Rain
6:46 AM 32.0 °F 28.7 °F 30.9 °F 96% 30.01 in 2.5 mi Variable 3.5 mph - N/A Rain Light Freezing Rain
6:56 AM 32.0 °F 27.5 °F 30.9 °F 96% 29.99 in 2.5 mi Variable 4.6 mph - N/A Rain Light Freezing Rain
7:05 AM 33.1 °F 27.7 °F 30.9 °F 92% 30.00 in 2.5 mi NNE 5.8 mph - N/A Rain Light Freezing Rain
7:22 AM 33.1 °F 26.1 °F 30.9 °F 92% 30.01 in 3.0 mi North 8.1 mph - N/A Rain Light Rain
7:40 AM 33.1 °F 24.4 °F 30.9 °F 92% 30.01 in 1.8 mi North 11.5 mph - N/A Snow Light Snow
7:49 AM 32.0 °F 22.1 °F 30.0 °F 92% 30.01 in 1.2 mi North 13.8 mph 20.7 mph N/A Rain Light Freezing Rain
7:56 AM 32.0 °F 23.0 °F 30.0 °F 92% 29.99 in 0.8 mi NNE 11.5 mph 21.9 mph N/A Snow Light Snow
8:16 AM 32.0 °F 24.2 °F 30.0 °F 92% 29.97 in 1.0 mi NNE 9.2 mph 25.3 mph N/A   Overcast
8:56 AM 30.9 °F 22.8 °F 30.0 °F 96% 29.98 in 1.2 mi NNE 9.2 mph 17.3 mph N/A   Overcast
9:16 AM 32.0 °F 24.8 °F 30.9 °F 96% 29.94 in 3.0 mi East 8.1 mph - N/A Rain Light Freezing Rain
9:29 AM 32.0 °F 24.8 °F 30.9 °F 96% 29.89 in 4.0 mi East 8.1 mph 20.7 mph N/A Rain Light Freezing Rain
9:40 AM 32.0 °F 26.4 °F 32.0 °F 100% 29.89 in 5.0 mi Variable 5.8 mph - N/A Rain Light Freezing Rain
9:56 AM 33.1 °F 26.9 °F 30.9 °F 92% 29.87 in 10.0 mi Variable 6.9 mph - N/A   Overcast
10:56 AM 33.1 °F 26.1 °F 32.0 °F 96% 29.78 in 10.0 mi ENE 8.1 mph - N/A Rain Light Rain
11:56 AM 33.1 °F - 30.9 °F 92% 29.68 in 10.0 mi North - - 0.15 in Rain Light Rain
12:29 PM 33.1 °F 26.9 °F 30.0 °F 89% 29.66 in 2.0 mi East 6.9 mph - 0.00 in Rain Rain
12:46 PM 33.1 °F 28.7 °F 32.0 °F 96% 29.65 in 4.0 mi Variable 4.6 mph - N/A Rain Light Rain
12:56 PM 33.1 °F 30.0 °F 32.0 °F 96% 29.67 in 5.0 mi North 3.5 mph - N/A Rain Light Rain
1:56 PM 34.0 °F 31.0 °F 32.0 °F 92% 29.64 in 9.0 mi Variable 3.5 mph - 0.06 in Rain Light Rain
2:39 PM 33.1 °F 28.7 °F 30.9 °F 92% 29.65 in 1.8 mi Variable 4.6 mph - 0.03 in   Overcast
2:56 PM 34.0 °F 28.8 °F 32.0 °F 92% 29.65 in 3.0 mi North 5.8 mph - 0.04 in   Overcast
3:12 PM 34.0 °F 28.0 °F 32.0 °F 92% 29.63 in 6.0 mi North 6.9 mph - 0.02 in   Overcast
3:56 PM 34.0 °F 28.8 °F 32.0 °F 92% 29.63 in 3.0 mi North 5.8 mph - 0.04 in   Overcast
4:04 PM 34.0 °F 28.8 °F 32.0 °F 92% 29.63 in 3.0 mi Variable 5.8 mph - N/A   Overcast
4:56 PM 33.1 °F 26.1 °F 30.0 °F 89% 29.64 in 5.0 mi North 8.1 mph - N/A   Overcast
5:56 PM 33.1 °F 24.4 °F 30.0 °F 89% 29.69 in 6.0 mi NNW 11.5 mph - N/A   Overcast
6:07 PM 32.0 °F 23.0 °F 30.0 °F 92% 29.70 in 7.0 mi NNW 11.5 mph - N/A   Overcast
6:56 PM 30.9 °F 21.7 °F 28.0 °F 89% 29.73 in 9.0 mi North 11.5 mph - N/A   Overcast
7:23 PM 30.9 °F 21.7 °F 28.0 °F 89% 29.74 in 10.0 mi NNW 11.5 mph - N/A   Overcast
7:56 PM 30.0 °F 21.7 °F 28.0 °F 92% 29.77 in 9.0 mi NNW 9.2 mph - N/A   Overcast
8:48 PM 30.0 °F 23.2 °F 27.0 °F 88% 29.80 in 4.0 mi North 6.9 mph - 0.00 in Snow Light Snow
8:56 PM 30.0 °F 23.2 °F 27.0 °F 88% 29.81 in 3.0 mi North 6.9 mph - 0.00 in Snow Light Snow
9:20 PM 30.0 °F 23.2 °F 27.0 °F 88% 29.82 in 4.0 mi NNW 6.9 mph - 0.00 in Snow Light Snow
9:56 PM 30.0 °F 23.2 °F 27.0 °F 88% 29.84 in 10.0 mi NNW 6.9 mph - 0.00 in   Overcast
10:56 PM 30.0 °F 25.2 °F 27.0 °F 88% 29.89 in 10.0 mi North 4.6 mph - N/A   Overcast
11:56 PM 30.0 °F 23.2 °F 26.1 °F 85% 29.95 in 10.0 mi North 6.9 mph - N/A   Overcast